BHE1130 ZUCK-ZGKL

Flight info

Callsign BHE1130
Flight time 1h 6m
Altitude 34100
Route VILUS1Z VILUS W180 LIDMA W182 LAGEX G586 SJG SJG9W
Aircraft E75L/M-SDE3GILORVW/S

Departure

Time 2026-05-06 13:35
Airport Chongqing Jiangbei International Airport (ZUCK)

Arrival

Time 2026-05-06 14:41
Airport Guilin Liangjiang International Airport (ZGKL)
Time Latitude Longitude Altitude Speed Heading
2026-05-06 13:11 29.71590 106.65702 1370 ft 0 kts 292°
2026-05-06 13:28 29.71589 106.65706 1370 ft 2 kts 292°
2026-05-06 13:29 29.71583 106.65721 1370 ft 2 kts 292°
2026-05-06 13:29 29.71578 106.65737 1370 ft 2 kts 292°
2026-05-06 13:29 29.71571 106.65752 1370 ft 2 kts 309°
2026-05-06 13:29 29.71560 106.65764 1370 ft 2 kts 329°
2026-05-06 13:30 29.71546 106.65770 1370 ft 2 kts 350°
2026-05-06 13:30 29.71531 106.65771 1370 ft 2 kts 10°
2026-05-06 13:30 29.71524 106.65768 1370 ft 0 kts 17°
2026-05-06 13:31 29.71526 106.65769 1370 ft 1 kts 18°
2026-05-06 13:32 29.71539 106.65780 1370 ft 3 kts 54°
2026-05-06 13:32 29.71531 106.65819 1370 ft 6 kts 112°
2026-05-06 13:32 29.71523 106.65843 1370 ft 0 kts 108°
2026-05-06 13:32 29.71517 106.65867 1370 ft 5 kts 107°
2026-05-06 13:33 29.71504 106.65914 1370 ft 6 kts 107°
2026-05-06 13:33 29.71488 106.65977 1370 ft 9 kts 106°
2026-05-06 13:33 29.71468 106.66058 1370 ft 10 kts 104°
2026-05-06 13:33 29.71451 106.66140 1370 ft 8 kts 103°
2026-05-06 13:34 29.71478 106.66165 1370 ft 6 kts 15°
2026-05-06 13:34 29.71541 106.66187 1370 ft 27 kts 17°
2026-05-06 13:34 29.71947 106.66324 1371 ft 91 kts 17°
2026-05-06 13:34 29.72742 106.66600 1372 ft 143 kts 16°
2026-05-06 13:35 29.73751 106.66951 1722 ft 154 kts 15°
2026-05-06 13:35 29.74789 106.67305 2279 ft 159 kts 17°
2026-05-06 13:35 29.75835 106.67663 2918 ft 163 kts 18°
2026-05-06 13:35 29.76945 106.68208 3327 ft 186 kts 32°
2026-05-06 13:36 29.78098 106.69047 3739 ft 209 kts 32°
2026-05-06 13:36 29.79371 106.69973 4401 ft 221 kts 31°
2026-05-06 13:36 29.80590 106.70836 5350 ft 204 kts 31°
2026-05-06 13:36 29.81807 106.71697 6121 ft 207 kts 30°
2026-05-06 13:37 29.83099 106.72612 6409 ft 235 kts 30°
2026-05-06 13:37 29.84586 106.73668 6577 ft 268 kts 31°
2026-05-06 13:37 29.85953 106.75240 6908 ft 292 kts 63°
2026-05-06 13:37 29.86365 106.77512 7625 ft 298 kts 96°
2026-05-06 13:38 29.85795 106.79778 8438 ft 298 kts 110°
2026-05-06 13:38 29.85113 106.82032 9230 ft 300 kts 108°
2026-05-06 13:38 29.84473 106.84307 9960 ft 303 kts 108°
2026-05-06 13:38 29.83845 106.86617 10594 ft 308 kts 107°
2026-05-06 13:39 29.83207 106.88998 11122 ft 317 kts 107°
2026-05-06 13:39 29.82554 106.91451 11626 ft 326 kts 107°
2026-05-06 13:39 29.81880 106.93988 12104 ft 335 kts 107°
2026-05-06 13:39 29.81198 106.96555 12657 ft 341 kts 107°
2026-05-06 13:40 29.80205 106.99038 13204 ft 344 kts 129°
2026-05-06 13:40 29.78375 107.00733 13772 ft 343 kts 158°
2026-05-06 13:40 29.76052 107.01264 14358 ft 339 kts 185°
2026-05-06 13:40 29.73782 107.00710 14970 ft 337 kts 198°
2026-05-06 13:41 29.71513 106.99955 15551 ft 339 kts 198°
2026-05-06 13:41 29.69247 106.99178 16113 ft 342 kts 198°
2026-05-06 13:41 29.66960 106.98386 16634 ft 345 kts 198°
2026-05-06 13:41 29.64659 106.97586 17162 ft 347 kts 199°
2026-05-06 13:42 29.62330 106.96775 17680 ft 349 kts 199°
2026-05-06 13:42 29.59935 106.96286 18146 ft 356 kts 184°
2026-05-06 13:42 29.57444 106.96242 18608 ft 360 kts 183°
2026-05-06 13:42 29.54922 106.96209 19059 ft 364 kts 183°
2026-05-06 13:43 29.52384 106.96178 19511 ft 367 kts 184°
2026-05-06 13:43 29.49821 106.96146 19975 ft 370 kts 184°
2026-05-06 13:43 29.47235 106.96115 20427 ft 372 kts 184°
2026-05-06 13:43 29.44638 106.96083 20883 ft 374 kts 184°
2026-05-06 13:44 29.42036 106.96052 21301 ft 377 kts 184°
2026-05-06 13:44 29.39371 106.96019 21714 ft 380 kts 184°
2026-05-06 13:44 29.36736 106.95987 22105 ft 382 kts 184°
2026-05-06 13:44 29.34055 106.95955 22500 ft 385 kts 185°
2026-05-06 13:45 29.31379 106.95922 22902 ft 387 kts 185°
2026-05-06 13:45 29.25953 106.95856 23688 ft 391 kts 185°
2026-05-06 13:45 29.23195 106.95823 24074 ft 393 kts 185°
2026-05-06 13:46 29.20463 106.95789 24440 ft 396 kts 185°
2026-05-06 13:46 29.17714 106.95757 24796 ft 398 kts 185°
2026-05-06 13:46 29.14945 106.95723 25142 ft 401 kts 185°
2026-05-06 13:46 29.12130 106.95689 25532 ft 402 kts 185°
2026-05-06 13:47 29.09330 106.95655 25907 ft 403 kts 185°
2026-05-06 13:47 29.06509 106.95622 26261 ft 405 kts 185°
2026-05-06 13:47 29.03709 106.95587 26601 ft 407 kts 185°
2026-05-06 13:47 29.00837 106.95553 26935 ft 409 kts 185°
2026-05-06 13:48 28.98019 106.95519 27263 ft 410 kts 185°
2026-05-06 13:48 28.95125 106.95484 27587 ft 412 kts 185°
2026-05-06 13:48 28.92244 106.95450 27898 ft 414 kts 186°
2026-05-06 13:48 28.89356 106.95416 28222 ft 415 kts 186°
2026-05-06 13:49 28.86483 106.95380 28528 ft 417 kts 186°
2026-05-06 13:49 28.83558 106.95345 28825 ft 419 kts 186°
2026-05-06 13:49 28.80602 106.95310 29104 ft 421 kts 186°
2026-05-06 13:49 28.77696 106.95275 29394 ft 423 kts 186°
2026-05-06 13:50 28.74729 106.95239 29688 ft 424 kts 186°
2026-05-06 13:50 28.71759 106.95203 29938 ft 427 kts 186°
2026-05-06 13:50 28.68791 106.95168 30186 ft 429 kts 186°
2026-05-06 13:50 28.65807 106.95133 30470 ft 430 kts 186°
2026-05-06 13:51 28.62779 106.95097 30737 ft 432 kts 186°
2026-05-06 13:51 28.59747 106.95061 31004 ft 433 kts 186°
2026-05-06 13:51 28.56752 106.95025 31254 ft 435 kts 186°
2026-05-06 13:51 28.53694 106.94989 31513 ft 436 kts 186°
2026-05-06 13:52 28.50670 106.94953 31792 ft 437 kts 186°
2026-05-06 13:52 28.47626 106.94917 32117 ft 436 kts 187°
2026-05-06 13:52 28.44591 106.94881 32455 ft 435 kts 186°
2026-05-06 13:52 28.41562 106.94846 32756 ft 435 kts 187°
2026-05-06 13:53 28.38539 106.94810 33097 ft 434 kts 187°
2026-05-06 13:53 28.35489 106.94774 33443 ft 433 kts 187°
2026-05-06 13:53 28.32457 106.94738 33762 ft 432 kts 187°
2026-05-06 13:53 28.29454 106.94702 34076 ft 432 kts 187°
2026-05-06 13:54 28.26438 106.94667 34376 ft 432 kts 187°
2026-05-06 13:54 28.23456 106.94643 34713 ft 432 kts 185°
2026-05-06 13:54 28.20405 106.94824 35011 ft 433 kts 184°
2026-05-06 13:54 28.17413 106.95001 35110 ft 437 kts 184°
2026-05-06 13:55 28.11226 106.95350 35117 ft 448 kts 184°
2026-05-06 13:55 28.04925 106.95699 35104 ft 459 kts 183°
2026-05-06 13:56 27.98472 106.96040 35088 ft 460 kts 184°
2026-05-06 13:56 27.92043 106.96379 35092 ft 461 kts 184°
2026-05-06 13:57 27.85661 106.96716 35099 ft 460 kts 183°
2026-05-06 13:57 27.79268 106.97053 35105 ft 460 kts 184°
2026-05-06 13:58 27.72824 106.97392 35107 ft 460 kts 183°
2026-05-06 13:58 27.66477 106.97725 35099 ft 460 kts 184°
2026-05-06 13:59 27.60079 106.98061 35094 ft 460 kts 184°
2026-05-06 13:59 27.53683 106.98397 35081 ft 460 kts 184°
2026-05-06 14:00 27.47272 106.98732 35080 ft 460 kts 184°
2026-05-06 14:00 27.40848 106.99080 35078 ft 458 kts 184°
2026-05-06 14:01 27.34460 106.99425 35083 ft 459 kts 184°
2026-05-06 14:01 27.28093 106.99769 35079 ft 459 kts 184°
2026-05-06 14:02 27.21643 107.00116 35090 ft 465 kts 184°
2026-05-06 14:02 27.15125 107.00466 35089 ft 472 kts 184°
2026-05-06 14:03 27.08468 107.00825 35089 ft 478 kts 183°
2026-05-06 14:03 27.01872 107.02266 35098 ft 494 kts 166°
2026-05-06 14:04 26.95729 107.05977 35097 ft 507 kts 147°
2026-05-06 14:04 26.90684 107.11551 35094 ft 519 kts 131°
2026-05-06 14:05 26.87127 107.18653 35105 ft 527 kts 112°
2026-05-06 14:05 26.85486 107.26685 35112 ft 531 kts 94°
2026-05-06 14:06 26.85081 107.34929 35117 ft 529 kts 100°
2026-05-06 14:06 26.83018 107.42730 35115 ft 526 kts 110°
2026-05-06 14:07 26.80891 107.50608 35107 ft 527 kts 107°
2026-05-06 14:07 26.78876 107.58446 35096 ft 526 kts 107°
2026-05-06 14:08 26.76836 107.66351 35085 ft 525 kts 108°
2026-05-06 14:08 26.74809 107.74170 35074 ft 525 kts 107°
2026-05-06 14:09 26.72763 107.82044 35063 ft 526 kts 107°
2026-05-06 14:09 26.70721 107.89883 35051 ft 524 kts 108°
2026-05-06 14:10 26.68674 107.97725 35046 ft 525 kts 108°
2026-05-06 14:10 26.66629 108.05534 35050 ft 525 kts 107°
2026-05-06 14:11 26.64583 108.13332 35064 ft 525 kts 107°
2026-05-06 14:11 26.62517 108.21183 35076 ft 525 kts 107°
2026-05-06 14:12 26.60447 108.29034 35091 ft 526 kts 107°
2026-05-06 14:12 26.58396 108.36793 35078 ft 524 kts 107°
2026-05-06 14:13 26.56563 108.44682 35055 ft 524 kts 105°
2026-05-06 14:13 26.54720 108.52628 35029 ft 525 kts 105°
2026-05-06 14:14 26.52890 108.60493 35033 ft 525 kts 105°
2026-05-06 14:14 26.51053 108.68366 35093 ft 523 kts 105°
2026-05-06 14:15 26.49212 108.76231 34971 ft 525 kts 105°
2026-05-06 14:15 26.47357 108.84135 35022 ft 525 kts 105°
2026-05-06 14:16 26.45507 108.92002 35029 ft 524 kts 105°
2026-05-06 14:16 26.43048 108.99609 35023 ft 511 kts 120°
2026-05-06 14:17 26.41201 109.02908 35029 ft 500 kts 127°
2026-05-06 14:17 26.39121 109.05988 35025 ft 492 kts 135°
2026-05-06 14:17 26.33944 109.10922 35049 ft 486 kts 147°
2026-05-06 14:18 26.31273 109.13206 34825 ft 491 kts 145°
2026-05-06 14:18 26.28601 109.15574 34285 ft 490 kts 144°
2026-05-06 14:18 26.25945 109.17949 33746 ft 489 kts 144°
2026-05-06 14:18 26.23256 109.20358 33206 ft 490 kts 144°
2026-05-06 14:19 26.20619 109.22719 32678 ft 491 kts 144°
2026-05-06 14:19 26.17932 109.25124 32134 ft 492 kts 144°
2026-05-06 14:19 26.15292 109.27485 31594 ft 490 kts 144°
2026-05-06 14:19 26.12651 109.29846 31053 ft 485 kts 144°
2026-05-06 14:20 26.09999 109.32217 30510 ft 480 kts 144°
2026-05-06 14:20 26.07406 109.34531 29977 ft 476 kts 144°
2026-05-06 14:20 26.04859 109.36804 29458 ft 471 kts 144°
2026-05-06 14:20 26.02310 109.39078 28937 ft 466 kts 144°
2026-05-06 14:21 25.99809 109.41307 28428 ft 461 kts 144°
2026-05-06 14:21 25.97294 109.43549 27909 ft 457 kts 144°
2026-05-06 14:21 25.94824 109.45747 27404 ft 454 kts 144°
2026-05-06 14:21 25.92388 109.47914 26905 ft 450 kts 144°
2026-05-06 14:22 25.89956 109.50078 26404 ft 447 kts 144°
2026-05-06 14:22 25.87536 109.52229 25909 ft 443 kts 144°
2026-05-06 14:22 25.85141 109.54356 25418 ft 440 kts 144°
2026-05-06 14:22 25.82760 109.56471 24932 ft 437 kts 144°
2026-05-06 14:23 25.80406 109.58560 24452 ft 433 kts 144°
2026-05-06 14:23 25.78066 109.60651 23971 ft 430 kts 141°
2026-05-06 14:23 25.75986 109.63031 23604 ft 429 kts 135°
2026-05-06 14:23 25.73994 109.65452 23126 ft 427 kts 135°
2026-05-06 14:24 25.72000 109.67873 22659 ft 422 kts 135°
2026-05-06 14:24 25.70022 109.70274 22205 ft 419 kts 135°
2026-05-06 14:24 25.68077 109.72634 21747 ft 416 kts 135°
2026-05-06 14:24 25.66143 109.74979 21299 ft 413 kts 135°
2026-05-06 14:25 25.64185 109.77351 20844 ft 411 kts 135°
2026-05-06 14:25 25.62266 109.79677 20396 ft 409 kts 135°
2026-05-06 14:25 25.60378 109.81963 19961 ft 405 kts 135°
2026-05-06 14:25 25.58475 109.84264 19512 ft 402 kts 135°
2026-05-06 14:26 25.56588 109.86548 19066 ft 399 kts 135°
2026-05-06 14:26 25.54738 109.88783 18632 ft 397 kts 135°
2026-05-06 14:26 25.52871 109.91039 18194 ft 395 kts 135°
2026-05-06 14:26 25.51035 109.93256 17761 ft 391 kts 135°
2026-05-06 14:27 25.49161 109.95401 17319 ft 386 kts 144°
2026-05-06 14:27 25.46815 109.96712 16959 ft 373 kts 169°
2026-05-06 14:27 25.44262 109.96959 16553 ft 365 kts 185°
2026-05-06 14:27 25.41716 109.96814 16107 ft 361 kts 187°
2026-05-06 14:28 25.39232 109.96612 15706 ft 358 kts 188°
2026-05-06 14:28 25.36765 109.96388 15314 ft 355 kts 188°
2026-05-06 14:28 25.34293 109.96157 14892 ft 352 kts 188°
2026-05-06 14:28 25.31853 109.95926 14509 ft 349 kts 188°
2026-05-06 14:29 25.29427 109.95694 14123 ft 347 kts 188°
2026-05-06 14:29 25.27031 109.95466 13738 ft 344 kts 188°
2026-05-06 14:29 25.24678 109.95241 13343 ft 341 kts 188°
2026-05-06 14:29 25.22310 109.95015 12977 ft 340 kts 188°
2026-05-06 14:30 25.19959 109.94791 12593 ft 337 kts 188°
2026-05-06 14:30 25.17622 109.94568 12205 ft 334 kts 188°
2026-05-06 14:30 25.15311 109.94347 11842 ft 331 kts 188°
2026-05-06 14:30 25.13031 109.94130 11477 ft 327 kts 188°
2026-05-06 14:31 25.10785 109.93917 11182 ft 317 kts 188°
2026-05-06 14:31 25.08595 109.93708 10842 ft 311 kts 188°
2026-05-06 14:31 25.06480 109.93507 10511 ft 303 kts 188°
2026-05-06 14:31 25.04396 109.93309 10180 ft 296 kts 188°
2026-05-06 14:32 25.02378 109.93117 9855 ft 288 kts 188°
2026-05-06 14:32 25.00379 109.92927 9547 ft 284 kts 188°
2026-05-06 14:32 24.98422 109.92741 9238 ft 282 kts 188°
2026-05-06 14:32 24.96475 109.92555 8928 ft 279 kts 188°
2026-05-06 14:33 24.94537 109.92371 8625 ft 277 kts 188°
2026-05-06 14:33 24.92669 109.92194 8311 ft 261 kts 187°
2026-05-06 14:33 24.90881 109.92114 8028 ft 255 kts 173°
2026-05-06 14:33 24.89341 109.92982 7801 ft 254 kts 137°
2026-05-06 14:34 24.88504 109.94708 7323 ft 260 kts 102°
2026-05-06 14:34 24.88307 109.96632 7168 ft 250 kts 100°
2026-05-06 14:34 24.88263 109.98539 6742 ft 255 kts 81°
2026-05-06 14:34 24.89131 110.00183 6419 ft 251 kts 42°
2026-05-06 14:35 24.90681 110.00961 6051 ft 237 kts
2026-05-06 14:35 24.92255 110.01119 5941 ft 225 kts
2026-05-06 14:35 24.93810 110.01268 5713 ft 224 kts
2026-05-06 14:35 24.95368 110.01416 5433 ft 224 kts
2026-05-06 14:36 24.96925 110.01564 5141 ft 223 kts
2026-05-06 14:36 24.98464 110.01711 4845 ft 222 kts
2026-05-06 14:36 25.00005 110.01857 4588 ft 217 kts
2026-05-06 14:36 25.01498 110.01999 4283 ft 216 kts
2026-05-06 14:37 25.03003 110.02142 3975 ft 214 kts
2026-05-06 14:37 25.04485 110.02283 3679 ft 212 kts
2026-05-06 14:37 25.05932 110.02420 3395 ft 209 kts
2026-05-06 14:37 25.07362 110.02556 3098 ft 195 kts
2026-05-06 14:38 25.08639 110.02677 2906 ft 175 kts
2026-05-06 14:38 25.09835 110.02792 2647 ft 166 kts
2026-05-06 14:38 25.10961 110.02898 2413 ft 158 kts
2026-05-06 14:38 25.12031 110.03000 2188 ft 147 kts
2026-05-06 14:39 25.13024 110.03095 1991 ft 139 kts
2026-05-06 14:39 25.13989 110.03185 1824 ft 138 kts
2026-05-06 14:39 25.14945 110.03268 1655 ft 138 kts
2026-05-06 14:39 25.15906 110.03375 1476 ft 138 kts
2026-05-06 14:40 25.16866 110.03464 1308 ft 136 kts
2026-05-06 14:40 25.17805 110.03542 1125 ft 135 kts
2026-05-06 14:40 25.18737 110.03635 955 ft 133 kts
2026-05-06 14:40 25.19669 110.03727 779 ft 132 kts
2026-05-06 14:41 25.20583 110.03809 600 ft 131 kts
2026-05-06 14:41 25.21471 110.03896 553 ft 120 kts
2026-05-06 14:41 25.22127 110.03964 544 ft 69 kts
2026-05-06 14:41 25.22487 110.04000 547 ft 35 kts 11°
2026-05-06 14:42 25.22663 110.04105 550 ft 23 kts 39°
2026-05-06 14:42 25.22671 110.04195 550 ft 11 kts 155°
2026-05-06 14:42 25.22604 110.04198 549 ft 8 kts 185°
2026-05-06 14:42 25.22544 110.04192 548 ft 8 kts 185°
2026-05-06 14:43 25.22471 110.04184 546 ft 13 kts 185°
2026-05-06 14:43 25.22349 110.04172 544 ft 20 kts 186°
2026-05-06 14:43 25.22219 110.04157 542 ft 17 kts 187°
2026-05-06 14:43 25.22159 110.04211 540 ft 10 kts 97°
2026-05-06 14:44 25.22151 110.04288 538 ft 10 kts 98°
2026-05-06 14:44 25.22143 110.04367 538 ft 12 kts 95°
2026-05-06 14:44 25.22080 110.04401 538 ft 11 kts 185°
2026-05-06 14:45 25.21844 110.04376 540 ft 21 kts 185°
2026-05-06 14:45 25.21708 110.04364 542 ft 14 kts 185°
2026-05-06 14:45 25.21611 110.04359 544 ft 13 kts 176°
2026-05-06 14:45 25.21532 110.04349 546 ft 8 kts 184°
2026-05-06 14:46 25.21522 110.04348 546 ft 0 kts 185°